Time,TemperatureF,DewpointF,PressureIn,WindDirection,WindDirectionDegrees,WindSpeedMPH,WindSpeedGustMPH,Humidity,HourlyPrecipIn,Conditions,Clouds,dailyrainin,SoftwareType,DateUTC
2013-04-16 00:02:00,52.3,38.8,30.14,NE,35,1.0,4.0,60,0.00,,,0.00,meteohub,2013-04-15 22:02:00,
2013-04-16 00:32:00,52.7,39.6,30.15,NE,55,0.0,2.0,61,0.00,,,0.00,meteohub,2013-04-15 22:32:00,
2013-04-16 01:02:00,53.2,39.2,30.14,NNE,26,0.0,5.0,59,0.00,,,0.00,meteohub,2013-04-15 23:02:00,
2013-04-16 01:32:00,56.5,40.1,30.14,East,91,0.0,3.0,54,0.00,,,0.00,meteohub,2013-04-15 23:32:00,
2013-04-16 02:02:00,55.0,40.1,30.14,East,90,0.0,2.0,57,0.00,,,0.00,meteohub,2013-04-16 00:02:00,
2013-04-16 02:32:00,53.8,40.6,30.13,East,90,0.0,2.0,61,0.00,,,0.00,meteohub,2013-04-16 00:32:00,
2013-04-16 03:02:00,53.4,41.2,30.13,NE,46,0.0,2.0,63,0.00,,,0.00,meteohub,2013-04-16 01:02:00,
2013-04-16 03:32:00,53.1,41.5,30.12,NE,46,0.0,2.0,65,0.00,,,0.00,meteohub,2013-04-16 01:32:00,
2013-04-16 04:02:00,52.3,42.1,30.13,NE,46,2.0,2.0,68,0.00,,,0.00,meteohub,2013-04-16 02:02:00,
2013-04-16 04:32:00,51.3,41.4,30.12,NE,46,0.0,1.0,69,0.00,,,0.00,meteohub,2013-04-16 02:32:00,
2013-04-16 05:02:00,50.5,42.3,30.13,NE,46,0.0,1.0,73,0.00,,,0.00,meteohub,2013-04-16 03:02:00,
2013-04-16 05:32:00,51.1,41.7,30.12,SW,232,4.0,5.0,70,0.00,,,0.00,meteohub,2013-04-16 03:32:00,
2013-04-16 06:02:00,50.2,43.3,30.13,SW,218,2.0,2.0,77,0.00,,,0.00,meteohub,2013-04-16 04:02:00,
2013-04-16 06:32:00,48.7,44.1,30.13,SW,229,1.0,3.0,84,0.00,,,0.00,meteohub,2013-04-16 04:32:00,
2013-04-16 07:02:00,48.4,43.7,30.14,SW,229,0.0,2.0,84,0.00,,,0.00,meteohub,2013-04-16 05:02:00,
2013-04-16 07:32:00,48.2,43.3,30.14,SW,229,0.0,1.0,83,0.00,,,0.00,meteohub,2013-04-16 05:32:00,
2013-04-16 08:02:00,49.8,44.6,30.14,SW,229,0.0,2.0,82,0.00,,,0.00,meteohub,2013-04-16 06:02:00,
2013-04-16 08:32:00,52.3,45.0,30.15,SW,218,3.0,3.0,76,0.00,,,0.00,meteohub,2013-04-16 06:32:00,
2013-04-16 09:02:00,55.0,46.6,30.14,SSW,196,0.0,4.0,73,0.00,,,0.00,meteohub,2013-04-16 07:02:00,
2013-04-16 09:32:00,58.8,43.2,30.14,SSE,147,0.0,4.0,56,0.00,,,0.00,meteohub,2013-04-16 07:32:00,
2013-04-16 10:02:00,60.8,43.0,30.14,East,86,0.0,5.0,52,0.00,,,0.00,meteohub,2013-04-16 08:02:00,
2013-04-16 10:32:00,61.5,44.2,30.13,ENE,78,0.0,7.0,53,0.00,,,0.00,meteohub,2013-04-16 08:32:00,
2013-04-16 11:02:00,63.9,43.7,30.14,East,98,2.0,8.0,48,0.00,,,0.00,meteohub,2013-04-16 09:02:00,
2013-04-16 11:32:00,64.8,43.5,30.14,East,100,0.0,7.0,46,0.00,,,0.00,meteohub,2013-04-16 09:32:00,
2013-04-16 12:02:00,65.5,44.8,30.14,SE,124,3.0,6.0,47,0.00,,,0.00,meteohub,2013-04-16 10:02:00,
2013-04-16 12:32:00,67.3,44.6,30.13,ESE,111,3.0,3.0,44,0.00,,,0.00,meteohub,2013-04-16 10:32:00,
2013-04-16 13:02:00,67.6,44.4,30.12,ESE,113,3.0,6.0,43,0.00,,,0.00,meteohub,2013-04-16 11:02:00,
2013-04-16 13:32:00,69.1,44.4,30.11,NNE,23,3.0,5.0,41,0.00,,,0.00,meteohub,2013-04-16 11:32:00,
2013-04-16 14:02:00,70.3,45.5,30.11,ESE,116,0.0,5.0,41,0.00,,,0.00,meteohub,2013-04-16 12:02:00,
2013-04-16 14:32:00,70.0,45.1,30.10,SW,218,1.0,7.0,41,0.00,,,0.00,meteohub,2013-04-16 12:32:00,
2013-04-16 15:02:00,70.3,45.5,30.10,West,279,2.0,4.0,41,0.00,,,0.00,meteohub,2013-04-16 13:02:00,
2013-04-16 15:32:00,68.0,49.3,30.11,SSW,206,2.0,10.0,51,0.00,,,0.00,meteohub,2013-04-16 13:32:00,
2013-04-16 16:02:00,68.2,50.4,30.10,SW,235,0.0,5.0,53,0.00,,,0.00,meteohub,2013-04-16 14:02:00,
2013-04-16 16:32:00,68.2,48.9,30.10,SSE,158,0.0,3.0,50,0.00,,,0.00,meteohub,2013-04-16 14:32:00,
2013-04-16 17:02:00,69.1,49.6,30.09,SSE,148,0.0,4.0,50,0.00,,,0.00,meteohub,2013-04-16 15:02:00,
2013-04-16 17:32:00,69.1,48.0,30.09,SE,130,1.0,5.0,47,0.00,,,0.00,meteohub,2013-04-16 15:32:00,
2013-04-16 18:02:00,70.0,48.7,30.08,SSE,158,2.0,7.0,47,0.00,,,0.00,meteohub,2013-04-16 16:02:00,
2013-04-16 18:32:00,69.4,48.9,30.08,South,188,1.0,7.0,48,0.00,,,0.00,meteohub,2013-04-16 16:32:00,
2013-04-16 19:02:00,68.0,49.3,30.09,SSW,200,1.0,7.0,51,0.00,,,0.00,meteohub,2013-04-16 17:02:00,
2013-04-16 19:32:00,65.7,49.1,30.09,SE,136,0.0,2.0,55,0.00,,,0.00,meteohub,2013-04-16 17:32:00,
2013-04-16 20:02:00,63.0,49.8,30.10,East,94,3.0,3.0,62,0.00,,,0.00,meteohub,2013-04-16 18:02:00,
2013-04-16 20:32:00,63.0,49.3,30.10,SE,130,2.0,4.0,61,0.00,,,0.00,meteohub,2013-04-16 18:32:00,
2013-04-16 21:02:00,63.3,49.6,30.11,SE,127,1.0,4.0,61,0.00,,,0.00,meteohub,2013-04-16 19:02:00,
2013-04-16 21:32:00,60.6,49.3,30.12,NE,46,3.0,4.0,66,0.00,,,0.00,meteohub,2013-04-16 19:32:00,
2013-04-16 22:02:00,60.4,49.5,30.14,ENE,63,1.0,9.0,67,0.00,,,0.00,meteohub,2013-04-16 20:02:00,
2013-04-16 22:32:00,61.3,51.4,30.14,SW,234,0.0,7.0,70,0.00,,,0.00,meteohub,2013-04-16 20:32:00,
2013-04-16 23:02:00,60.4,52.5,30.13,SSW,198,1.0,2.0,75,0.00,,,0.00,meteohub,2013-04-16 21:02:00,
2013-04-16 23:32:00,59.2,52.0,30.14,NNE,24,3.0,4.0,77,0.00,,,0.00,meteohub,2013-04-16 21:32:00,